Time,TemperatureF,DewpointF,PressureIn,WindDirection,WindDirectionDegrees,WindSpeedMPH,WindSpeedGustMPH,Humidity,HourlyPrecipIn,Conditions,Clouds,dailyrainin,SoftwareType,DateUTC
2013-10-31 00:04:00,57.0,53.8,29.80,SSW,196,0.0,0.0,89,0.00,,,0.00,Wunderground v.1.15,2013-10-31 05:04:00,
2013-10-31 00:14:00,57.7,54.5,29.80,SE,144,1.0,1.0,89,0.00,,,0.00,Wunderground v.1.15,2013-10-31 05:14:00,
2013-10-31 00:19:00,57.8,54.6,29.78,SSE,167,1.0,1.0,89,0.00,,,0.00,Wunderground v.1.15,2013-10-31 05:19:00,
2013-10-31 00:24:00,57.8,54.6,29.77,South,173,1.0,7.0,89,0.00,,,0.00,Wunderground v.1.15,2013-10-31 05:24:00,
2013-10-31 00:29:00,57.7,54.5,29.76,SSE,159,2.0,2.0,89,0.00,,,0.00,Wunderground v.1.15,2013-10-31 05:29:00,
2013-10-31 00:34:00,57.7,54.5,29.76,SSE,168,1.0,2.0,89,0.00,,,0.00,Wunderground v.1.15,2013-10-31 05:34:00,
2013-10-31 00:39:00,57.7,54.5,29.76,SSE,153,0.0,0.0,89,0.00,,,0.00,Wunderground v.1.15,2013-10-31 05:39:00,
2013-10-31 00:49:00,57.6,54.4,29.75,SSE,158,0.0,0.0,89,0.00,,,0.00,Wunderground v.1.15,2013-10-31 05:49:00,
2013-10-31 00:59:00,57.6,54.4,29.75,SSE,157,0.0,0.0,89,0.00,,,0.00,Wunderground v.1.15,2013-10-31 05:59:00,
2013-10-31 01:04:00,57.6,54.4,29.75,SSE,158,0.0,0.0,89,0.00,,,0.00,Wunderground v.1.15,2013-10-31 06:04:00,
2013-10-31 01:14:00,57.7,54.5,29.75,SSE,158,0.0,0.0,89,0.00,,,0.00,Wunderground v.1.15,2013-10-31 06:14:00,
2013-10-31 01:19:00,57.7,54.5,29.75,SSE,157,0.0,1.0,89,0.00,,,0.00,Wunderground v.1.15,2013-10-31 06:19:00,
2013-10-31 01:24:00,58.0,54.8,29.73,SE,146,1.0,1.0,89,0.00,,,0.00,Wunderground v.1.15,2013-10-31 06:24:00,
2013-10-31 01:29:00,58.1,54.9,29.74,SSE,152,1.0,1.0,89,0.00,,,0.00,Wunderground v.1.15,2013-10-31 06:29:00,
2013-10-31 01:34:00,58.2,55.0,29.74,SSE,153,0.0,1.0,89,0.00,,,0.00,Wunderground v.1.15,2013-10-31 06:34:00,
2013-10-31 01:39:00,58.2,55.0,29.74,SSE,152,0.0,0.0,89,0.00,,,0.00,Wunderground v.1.15,2013-10-31 06:39:00,
2013-10-31 01:44:00,58.4,55.2,29.73,SSE,152,0.0,0.0,89,0.00,,,0.00,Wunderground v.1.15,2013-10-31 06:44:00,
2013-10-31 01:54:00,59.0,55.4,29.73,SSE,155,1.0,1.0,88,0.00,,,0.00,Wunderground v.1.15,2013-10-31 06:54:00,
2013-10-31 01:59:00,59.1,55.5,29.73,SSE,155,0.0,0.0,88,0.00,,,0.00,Wunderground v.1.15,2013-10-31 06:59:00,
2013-10-31 02:04:00,59.5,56.3,29.73,ESE,121,0.0,0.0,89,0.00,,,0.00,Wunderground v.1.15,2013-10-31 07:04:00,
2013-10-31 02:14:00,59.9,56.3,29.72,SE,146,0.0,0.0,88,0.00,,,0.00,Wunderground v.1.15,2013-10-31 07:14:00,
2013-10-31 02:19:00,60.0,56.4,29.72,SSE,147,0.0,0.0,88,0.00,,,0.00,Wunderground v.1.15,2013-10-31 07:19:00,
2013-10-31 02:29:00,60.1,56.5,29.71,SE,146,0.0,1.0,88,0.00,,,0.00,Wunderground v.1.15,2013-10-31 07:29:00,
2013-10-31 02:34:00,60.2,56.6,29.70,SSE,147,0.0,1.0,88,0.00,,,0.00,Wunderground v.1.15,2013-10-31 07:34:00,
2013-10-31 02:39:00,60.3,56.7,29.70,SSE,163,0.0,0.0,88,0.00,,,0.00,Wunderground v.1.15,2013-10-31 07:39:00,
2013-10-31 02:49:00,60.4,56.8,29.70,South,180,1.0,1.0,88,0.00,,,0.00,Wunderground v.1.15,2013-10-31 07:49:00,
2013-10-31 02:54:00,60.4,56.8,29.70,SSE,167,1.0,1.0,88,0.00,,,0.00,Wunderground v.1.15,2013-10-31 07:54:00,
2013-10-31 03:04:00,60.3,56.7,29.69,South,180,0.0,0.0,88,0.00,,,0.00,Wunderground v.1.15,2013-10-31 08:04:00,
2013-10-31 03:14:00,60.3,56.7,29.70,SE,138,0.0,0.0,88,0.00,,,0.00,Wunderground v.1.15,2013-10-31 08:14:00,
2013-10-31 03:19:00,60.4,56.8,29.70,SSW,192,0.0,0.0,88,0.00,,,0.00,Wunderground v.1.15,2013-10-31 08:19:00,
2013-10-31 03:24:00,60.4,56.8,29.68,South,183,0.0,0.0,88,0.00,,,0.00,Wunderground v.1.15,2013-10-31 08:24:00,
2013-10-31 03:34:00,60.5,56.9,29.68,South,173,0.0,0.0,88,0.00,,,0.00,Wunderground v.1.15,2013-10-31 08:34:00,
2013-10-31 03:39:00,60.5,56.9,29.68,SE,140,0.0,0.0,88,0.00,,,0.00,Wunderground v.1.15,2013-10-31 08:39:00,
2013-10-31 03:44:00,60.5,56.9,29.67,SE,137,0.0,0.0,88,0.00,,,0.00,Wunderground v.1.15,2013-10-31 08:44:00,
2013-10-31 03:49:00,60.6,57.0,29.67,SE,137,0.0,0.0,88,0.00,,,0.00,Wunderground v.1.15,2013-10-31 08:49:00,
2013-10-31 03:54:00,60.6,57.0,29.67,SE,146,0.0,0.0,88,0.00,,,0.00,Wunderground v.1.15,2013-10-31 08:54:00,
2013-10-31 03:59:00,60.6,57.0,29.67,SE,141,0.0,0.0,88,0.00,,,0.00,Wunderground v.1.15,2013-10-31 08:59:00,
2013-10-31 04:05:00,60.6,57.0,29.67,SE,142,0.0,0.0,88,0.00,,,0.00,Wunderground v.1.15,2013-10-31 09:05:00,
2013-10-31 04:14:00,60.5,56.9,29.66,SE,142,0.0,0.0,88,0.00,,,0.00,Wunderground v.1.15,2013-10-31 09:14:00,
2013-10-31 04:19:00,60.5,56.9,29.66,SE,137,0.0,0.0,88,0.00,,,0.00,Wunderground v.1.15,2013-10-31 09:19:00,
2013-10-31 04:29:00,60.5,56.9,29.66,SE,141,0.0,0.0,88,0.00,,,0.00,Wunderground v.1.15,2013-10-31 09:29:00,
2013-10-31 04:34:00,60.4,56.8,29.66,SE,141,0.0,0.0,88,0.00,,,0.00,Wunderground v.1.15,2013-10-31 09:34:00,
2013-10-31 04:39:00,60.3,56.7,29.65,SE,141,0.0,0.0,88,0.00,,,0.00,Wunderground v.1.15,2013-10-31 09:39:00,
2013-10-31 04:44:00,60.3,56.7,29.65,SE,141,0.0,0.0,88,0.00,,,0.00,Wunderground v.1.15,2013-10-31 09:44:00,
2013-10-31 04:49:00,60.4,56.8,29.65,SE,141,0.0,0.0,88,0.00,,,0.00,Wunderground v.1.15,2013-10-31 09:49:00,
2013-10-31 04:54:00,60.4,56.8,29.65,SE,141,0.0,0.0,88,0.00,,,0.00,Wunderground v.1.15,2013-10-31 09:54:00,
2013-10-31 04:59:00,60.4,56.8,29.65,SE,141,0.0,0.0,88,0.00,,,0.00,Wunderground v.1.15,2013-10-31 09:59:00,
2013-10-31 05:05:00,60.3,56.7,29.64,South,176,0.0,0.0,88,0.00,,,0.00,Wunderground v.1.15,2013-10-31 10:05:00,
2013-10-31 05:14:00,60.2,56.6,29.64,South,176,0.0,0.0,88,0.00,,,0.00,Wunderground v.1.15,2013-10-31 10:14:00,
2013-10-31 05:19:00,60.1,56.5,29.64,South,176,0.0,0.0,88,0.00,,,0.00,Wunderground v.1.15,2013-10-31 10:19:00,
2013-10-31 05:29:00,60.1,56.5,29.64,SSE,159,0.0,0.0,88,0.00,,,0.00,Wunderground v.1.15,2013-10-31 10:29:00,
2013-10-31 05:34:00,60.2,56.6,29.64,SE,146,0.0,0.0,88,0.00,,,0.00,Wunderground v.1.15,2013-10-31 10:34:00,
2013-10-31 05:39:00,60.2,56.6,29.64,SE,140,1.0,1.0,88,0.00,,,0.00,Wunderground v.1.15,2013-10-31 10:39:00,
2013-10-31 05:44:00,60.3,56.7,29.64,SSE,153,1.0,4.0,88,0.00,,,0.00,Wunderground v.1.15,2013-10-31 10:44:00,
2013-10-31 05:49:00,60.3,56.7,29.64,SW,215,1.0,1.0,88,0.00,,,0.00,Wunderground v.1.15,2013-10-31 10:49:00,
2013-10-31 05:54:00,60.4,56.8,29.64,SE,141,1.0,1.0,88,0.00,,,0.00,Wunderground v.1.15,2013-10-31 10:54:00,
2013-10-31 06:04:00,60.4,56.8,29.63,SE,132,1.0,2.0,88,0.00,,,0.00,Wunderground v.1.15,2013-10-31 11:04:00,
2013-10-31 06:14:00,60.4,56.8,29.63,SSE,168,0.0,0.0,88,0.00,,,0.00,Wunderground v.1.15,2013-10-31 11:14:00,
2013-10-31 06:24:00,60.3,56.7,29.62,SW,226,1.0,6.0,88,0.00,,,0.00,Wunderground v.1.15,2013-10-31 11:24:00,
2013-10-31 06:29:00,60.3,56.7,29.62,SE,125,1.0,1.0,88,0.00,,,0.00,Wunderground v.1.15,2013-10-31 11:29:00,
2013-10-31 06:34:00,60.3,56.7,29.61,SSE,162,1.0,4.0,88,0.00,,,0.00,Wunderground v.1.15,2013-10-31 11:34:00,
2013-10-31 06:44:00,60.3,56.7,29.61,SSE,147,0.0,0.0,88,0.00,,,0.00,Wunderground v.1.15,2013-10-31 11:44:00,
2013-10-31 06:49:00,60.3,56.7,29.60,SSE,150,0.0,0.0,88,0.00,,,0.00,Wunderground v.1.15,2013-10-31 11:49:00,
2013-10-31 06:54:00,60.3,56.7,29.60,SSE,150,0.0,0.0,88,0.00,,,0.00,Wunderground v.1.15,2013-10-31 11:54:00,
2013-10-31 06:59:00,60.3,56.7,29.60,SSE,150,0.0,0.0,88,0.00,,,0.00,Wunderground v.1.15,2013-10-31 11:59:00,
2013-10-31 07:05:00,60.2,56.6,29.60,SE,146,0.0,0.0,88,0.00,,,0.00,Wunderground v.1.15,2013-10-31 12:05:00,
2013-10-31 07:14:00,60.2,56.6,29.59,SSE,153,0.0,0.0,88,0.00,,,0.00,Wunderground v.1.15,2013-10-31 12:14:00,
2013-10-31 07:19:00,60.2,56.6,29.59,SSE,149,0.0,0.0,88,0.00,,,0.00,Wunderground v.1.15,2013-10-31 12:19:00,
2013-10-31 07:24:00,60.2,56.6,29.59,SSE,157,0.0,2.0,88,0.00,,,0.00,Wunderground v.1.15,2013-10-31 12:24:00,
2013-10-31 07:29:00,60.2,56.6,29.59,SSE,154,0.0,0.0,88,0.00,,,0.00,Wunderground v.1.15,2013-10-31 12:29:00,
2013-10-31 07:39:00,60.2,56.6,29.59,SSE,150,0.0,0.0,88,0.00,,,0.00,Wunderground v.1.15,2013-10-31 12:39:00,
2013-10-31 07:44:00,60.2,56.6,29.59,South,190,1.0,1.0,88,0.00,,,0.00,Wunderground v.1.15,2013-10-31 12:44:00,
2013-10-31 07:49:00,60.2,56.6,29.60,SE,142,0.0,0.0,88,0.00,,,0.00,Wunderground v.1.15,2013-10-31 12:49:00,
2013-10-31 07:54:00,60.2,56.6,29.59,South,184,1.0,1.0,88,0.00,,,0.00,Wunderground v.1.15,2013-10-31 12:54:00,
2013-10-31 08:05:00,60.2,56.6,29.60,SE,138,0.0,1.0,88,0.00,,,0.00,Wunderground v.1.15,2013-10-31 13:05:00,
2013-10-31 08:14:00,60.1,56.5,29.59,SSW,210,0.0,0.0,88,0.00,,,0.00,Wunderground v.1.15,2013-10-31 13:14:00,
2013-10-31 08:19:00,60.1,56.5,29.60,South,184,0.0,0.0,88,0.00,,,0.00,Wunderground v.1.15,2013-10-31 13:19:00,
2013-10-31 08:24:00,60.1,56.5,29.59,West,265,0.0,1.0,88,0.00,,,0.00,Wunderground v.1.15,2013-10-31 13:24:00,
2013-10-31 08:34:00,60.1,56.5,29.59,South,170,0.0,0.0,88,0.00,,,0.00,Wunderground v.1.15,2013-10-31 13:34:00,
2013-10-31 08:39:00,60.0,56.1,29.58,SSE,159,0.0,0.0,87,0.00,,,0.00,Wunderground v.1.15,2013-10-31 13:39:00,
2013-10-31 08:44:00,60.0,56.1,29.58,SSE,159,0.0,0.0,87,0.00,,,0.00,Wunderground v.1.15,2013-10-31 13:44:00,
2013-10-31 08:49:00,60.0,56.1,29.58,South,180,0.0,1.0,87,0.00,,,0.00,Wunderground v.1.15,2013-10-31 13:49:00,
2013-10-31 08:54:00,60.0,56.1,29.58,East,80,0.0,1.0,87,0.00,,,0.00,Wunderground v.1.15,2013-10-31 13:54:00,
2013-10-31 08:59:00,60.0,56.1,29.58,East,81,0.0,0.0,87,0.00,,,0.00,Wunderground v.1.15,2013-10-31 13:59:00,
2013-10-31 09:05:00,60.0,56.1,29.58,ESE,116,0.0,0.0,87,0.00,,,0.00,Wunderground v.1.15,2013-10-31 14:05:00,
2013-10-31 09:14:00,60.0,56.1,29.57,SSE,162,0.0,0.0,87,0.00,,,0.00,Wunderground v.1.15,2013-10-31 14:14:00,
2013-10-31 09:19:00,60.0,56.1,29.57,SSE,163,0.0,0.0,87,0.00,,,0.00,Wunderground v.1.15,2013-10-31 14:19:00,
2013-10-31 09:24:00,60.0,56.1,29.57,SW,222,0.0,0.0,87,0.00,,,0.00,Wunderground v.1.15,2013-10-31 14:24:00,
2013-10-31 09:34:00,60.1,56.2,29.56,SW,217,0.0,0.0,87,0.00,,,0.01,Wunderground v.1.15,2013-10-31 14:34:00,
2013-10-31 09:39:00,60.1,56.2,29.56,SSE,167,0.0,5.0,87,0.00,,,0.01,Wunderground v.1.15,2013-10-31 14:39:00,
2013-10-31 09:44:00,60.0,56.1,29.56,SSE,161,0.0,5.0,87,0.00,,,0.01,Wunderground v.1.15,2013-10-31 14:44:00,
2013-10-31 09:49:00,60.0,56.1,29.55,SSE,159,1.0,1.0,87,0.00,,,0.01,Wunderground v.1.15,2013-10-31 14:49:00,
2013-10-31 09:54:00,60.1,56.2,29.55,ESE,115,0.0,1.0,87,0.00,,,0.01,Wunderground v.1.15,2013-10-31 14:54:00,
2013-10-31 09:59:00,60.2,56.3,29.54,South,170,0.0,0.0,87,0.00,,,0.01,Wunderground v.1.15,2013-10-31 14:59:00,
2013-10-31 10:04:00,60.2,56.3,29.55,SE,139,0.0,0.0,87,0.00,,,0.01,Wunderground v.1.15,2013-10-31 15:04:00,
2013-10-31 10:14:00,60.2,56.3,29.54,SE,145,0.0,0.0,87,0.00,,,0.02,Wunderground v.1.15,2013-10-31 15:14:00,
2013-10-31 10:24:00,60.0,56.1,29.54,SW,233,0.0,0.0,87,0.00,,,0.02,Wunderground v.1.15,2013-10-31 15:24:00,
2013-10-31 10:29:00,59.9,56.0,29.54,SSW,201,0.0,0.0,87,0.00,,,0.02,Wunderground v.1.15,2013-10-31 15:29:00,
2013-10-31 10:34:00,59.9,56.0,29.54,SW,215,0.0,0.0,87,0.00,,,0.02,Wunderground v.1.15,2013-10-31 15:34:00,
2013-10-31 10:39:00,59.8,55.9,29.53,WSW,239,0.0,0.0,87,0.00,,,0.02,Wunderground v.1.15,2013-10-31 15:39:00,
2013-10-31 10:49:00,59.8,55.9,29.53,West,264,0.0,0.0,87,1.16,,,0.05,Wunderground v.1.15,2013-10-31 15:49:00,
2013-10-31 10:54:00,59.7,55.8,29.53,West,269,0.0,0.0,87,0.33,,,0.12,Wunderground v.1.15,2013-10-31 15:54:00,
2013-10-31 11:05:00,59.6,55.7,29.53,WSW,242,0.0,0.0,87,0.13,,,0.14,Wunderground v.1.15,2013-10-31 16:05:00,
2013-10-31 11:14:00,59.5,55.6,29.51,South,180,0.0,0.0,87,0.04,,,0.15,Wunderground v.1.15,2013-10-31 16:14:00,
2013-10-31 11:19:00,59.4,55.5,29.51,South,191,0.0,0.0,87,0.04,,,0.15,Wunderground v.1.15,2013-10-31 16:19:00,
2013-10-31 11:24:00,59.5,55.6,29.51,SSW,196,0.0,0.0,87,0.06,,,0.16,Wunderground v.1.15,2013-10-31 16:24:00,
2013-10-31 11:34:00,59.6,55.7,29.50,SSW,200,0.0,0.0,87,0.06,,,0.16,Wunderground v.1.15,2013-10-31 16:34:00,
2013-10-31 11:39:00,59.6,55.7,29.50,West,264,0.0,0.0,87,0.04,,,0.16,Wunderground v.1.15,2013-10-31 16:39:00,
2013-10-31 11:44:00,59.5,55.6,29.50,West,264,0.0,0.0,87,0.04,,,0.17,Wunderground v.1.15,2013-10-31 16:44:00,
2013-10-31 11:49:00,59.5,55.6,29.50,West,264,0.0,0.0,87,0.04,,,0.17,Wunderground v.1.15,2013-10-31 16:49:00,
2013-10-31 11:54:00,59.3,55.4,29.50,West,277,0.0,0.0,87,0.04,,,0.17,Wunderground v.1.15,2013-10-31 16:54:00,
2013-10-31 11:59:00,59.1,55.2,29.50,West,275,1.0,1.0,87,0.04,,,0.18,Wunderground v.1.15,2013-10-31 16:59:00,
2013-10-31 12:05:00,59.0,55.1,29.50,West,263,0.0,1.0,87,0.04,,,0.18,Wunderground v.1.15,2013-10-31 17:05:00,
2013-10-31 12:14:00,59.0,55.1,29.50,West,259,0.0,0.0,87,0.04,,,0.19,Wunderground v.1.15,2013-10-31 17:14:00,
2013-10-31 12:19:00,58.9,55.7,29.49,WNW,294,0.0,0.0,89,0.04,,,0.19,Wunderground v.1.15,2013-10-31 17:19:00,
2013-10-31 12:24:00,58.7,54.8,29.48,WNW,292,1.0,1.0,87,0.04,,,0.19,Wunderground v.1.15,2013-10-31 17:24:00,
2013-10-31 12:29:00,58.6,54.7,29.47,WNW,290,0.0,1.0,87,0.04,,,0.19,Wunderground v.1.15,2013-10-31 17:29:00,
2013-10-31 12:34:00,58.6,54.7,29.47,WNW,290,0.0,1.0,87,0.04,,,0.20,Wunderground v.1.15,2013-10-31 17:34:00,
2013-10-31 12:44:00,58.7,54.8,29.47,WNW,291,0.0,0.0,87,0.04,,,0.20,Wunderground v.1.15,2013-10-31 17:44:00,
2013-10-31 12:49:00,58.4,54.5,29.47,WNW,291,1.0,2.0,87,0.00,,,0.20,Wunderground v.1.15,2013-10-31 17:49:00,
2013-10-31 12:54:00,58.3,54.4,29.47,WNW,286,1.0,3.0,87,0.00,,,0.20,Wunderground v.1.15,2013-10-31 17:54:00,
2013-10-31 12:59:00,58.1,54.2,29.46,NW,313,1.0,2.0,87,0.00,,,0.21,Wunderground v.1.15,2013-10-31 17:59:00,
2013-10-31 13:04:00,57.5,53.7,29.46,West,278,2.0,5.0,87,0.00,,,0.21,Wunderground v.1.15,2013-10-31 18:04:00,
2013-10-31 13:14:00,56.9,53.1,29.46,NNW,338,1.0,2.0,87,0.05,,,0.22,Wunderground v.1.15,2013-10-31 18:14:00,
2013-10-31 13:19:00,56.6,52.8,29.45,NW,306,2.0,3.0,87,0.09,,,0.23,Wunderground v.1.15,2013-10-31 18:19:00,
2013-10-31 13:24:00,56.4,52.6,29.44,NW,311,3.0,5.0,87,0.11,,,0.24,Wunderground v.1.15,2013-10-31 18:24:00,
2013-10-31 13:29:00,56.0,52.2,29.44,NW,314,4.0,4.0,87,0.10,,,0.24,Wunderground v.1.15,2013-10-31 18:29:00,
2013-10-31 13:34:00,55.6,51.8,29.43,NW,317,5.0,9.0,87,0.06,,,0.25,Wunderground v.1.15,2013-10-31 18:34:00,
2013-10-31 13:39:00,54.9,51.1,29.43,NNW,327,6.0,8.0,87,0.06,,,0.25,Wunderground v.1.15,2013-10-31 18:39:00,
2013-10-31 13:49:00,54.1,50.3,29.42,North,360,4.0,5.0,87,0.07,,,0.26,Wunderground v.1.15,2013-10-31 18:49:00,
2013-10-31 13:59:00,53.2,49.4,29.42,NNW,339,4.0,4.0,87,0.06,,,0.27,Wunderground v.1.15,2013-10-31 18:59:00,
2013-10-31 14:04:00,52.9,49.1,29.42,NNW,332,3.0,5.0,87,0.05,,,0.27,Wunderground v.1.15,2013-10-31 19:04:00,
2013-10-31 14:14:00,52.1,48.3,29.42,NW,319,4.0,4.0,87,0.12,,,0.29,Wunderground v.1.15,2013-10-31 19:14:00,
2013-10-31 14:19:00,51.7,48.0,29.42,WNW,303,3.0,3.0,87,0.10,,,0.30,Wunderground v.1.15,2013-10-31 19:19:00,
2013-10-31 14:24:00,51.5,47.8,29.41,NNW,328,2.0,5.0,87,0.07,,,0.30,Wunderground v.1.15,2013-10-31 19:24:00,
2013-10-31 14:29:00,51.4,48.0,29.41,NW,306,3.0,3.0,88,0.05,,,0.31,Wunderground v.1.15,2013-10-31 19:29:00,
2013-10-31 14:39:00,51.0,47.6,29.41,NW,313,2.0,2.0,88,0.06,,,0.32,Wunderground v.1.15,2013-10-31 19:39:00,
2013-10-31 14:44:00,51.0,47.6,29.40,NNW,334,1.0,3.0,88,0.06,,,0.32,Wunderground v.1.15,2013-10-31 19:44:00,
2013-10-31 14:49:00,50.8,47.4,29.40,NW,323,2.0,5.0,88,0.09,,,0.33,Wunderground v.1.15,2013-10-31 19:49:00,
2013-10-31 14:54:00,50.8,47.4,29.40,NNW,331,2.0,5.0,88,0.07,,,0.33,Wunderground v.1.15,2013-10-31 19:54:00,
2013-10-31 14:59:00,50.9,47.5,29.40,NNW,327,1.0,1.0,88,0.04,,,0.33,Wunderground v.1.15,2013-10-31 19:59:00,
2013-10-31 15:04:00,50.6,46.9,29.40,NNW,341,1.0,4.0,87,0.00,,,0.33,Wunderground v.1.15,2013-10-31 20:04:00,
2013-10-31 15:14:00,50.2,46.8,29.40,NNW,333,2.0,5.0,88,0.00,,,0.34,Wunderground v.1.15,2013-10-31 20:14:00,
2013-10-31 15:24:00,49.7,46.3,29.39,NNW,334,4.0,4.0,88,0.00,,,0.34,Wunderground v.1.15,2013-10-31 20:24:00,
2013-10-31 15:34:00,49.2,45.8,29.39,NNW,330,4.0,4.0,88,0.04,,,0.35,Wunderground v.1.15,2013-10-31 20:34:00,
2013-10-31 15:39:00,48.9,45.5,29.38,NW,325,3.0,3.0,88,0.05,,,0.36,Wunderground v.1.15,2013-10-31 20:39:00,
2013-10-31 15:44:00,48.7,45.3,29.39,NW,321,4.0,4.0,88,0.05,,,0.36,Wunderground v.1.15,2013-10-31 20:44:00,
2013-10-31 15:49:00,48.5,45.1,29.39,NW,322,3.0,3.0,88,0.05,,,0.36,Wunderground v.1.15,2013-10-31 20:49:00,
2013-10-31 15:54:00,48.1,44.7,29.40,NW,320,4.0,4.0,88,0.00,,,0.36,Wunderground v.1.15,2013-10-31 20:54:00,
2013-10-31 16:04:00,47.9,44.5,29.40,NW,312,3.0,5.0,88,0.00,,,0.36,Wunderground v.1.15,2013-10-31 21:04:00,
2013-10-31 16:14:00,48.0,44.6,29.39,NW,325,2.0,4.0,88,0.00,,,0.37,Wunderground v.1.15,2013-10-31 21:14:00,
2013-10-31 16:19:00,48.0,44.6,29.40,NW,326,1.0,4.0,88,0.00,,,0.37,Wunderground v.1.15,2013-10-31 21:19:00,
2013-10-31 16:24:00,47.9,44.5,29.40,NNW,345,1.0,5.0,88,0.00,,,0.37,Wunderground v.1.15,2013-10-31 21:24:00,
2013-10-31 16:34:00,47.6,44.2,29.40,NNW,329,3.0,3.0,88,0.00,,,0.37,Wunderground v.1.15,2013-10-31 21:34:00,
2013-10-31 16:39:00,47.5,44.1,29.41,NW,322,3.0,3.0,88,0.00,,,0.37,Wunderground v.1.15,2013-10-31 21:39:00,
2013-10-31 16:44:00,47.3,43.9,29.40,NNW,338,2.0,3.0,88,0.00,,,0.37,Wunderground v.1.15,2013-10-31 21:44:00,
2013-10-31 16:49:00,47.2,43.8,29.40,NNW,329,1.0,2.0,88,0.00,,,0.37,Wunderground v.1.15,2013-10-31 21:49:00,
2013-10-31 16:59:00,47.1,43.7,29.41,NW,322,1.0,1.0,88,0.00,,,0.37,Wunderground v.1.15,2013-10-31 21:59:00,
2013-10-31 17:05:00,46.9,43.5,29.41,NW,304,1.0,1.0,88,0.00,,,0.37,Wunderground v.1.15,2013-10-31 22:05:00,
2013-10-31 17:14:00,46.7,43.3,29.41,NW,315,1.0,1.0,88,0.00,,,0.37,Wunderground v.1.15,2013-10-31 22:14:00,
2013-10-31 17:19:00,46.6,43.2,29.41,NW,314,1.0,2.0,88,0.00,,,0.37,Wunderground v.1.15,2013-10-31 22:19:00,
2013-10-31 17:29:00,46.4,43.0,29.42,NW,317,1.0,3.0,88,0.00,,,0.37,Wunderground v.1.15,2013-10-31 22:29:00,
2013-10-31 17:39:00,46.0,42.6,29.42,West,273,2.0,5.0,88,0.00,,,0.38,Wunderground v.1.15,2013-10-31 22:39:00,
2013-10-31 17:44:00,45.9,42.5,29.42,North,349,2.0,5.0,88,0.00,,,0.38,Wunderground v.1.15,2013-10-31 22:44:00,
2013-10-31 17:49:00,45.7,42.3,29.42,NW,325,1.0,2.0,88,0.00,,,0.38,Wunderground v.1.15,2013-10-31 22:49:00,
2013-10-31 17:54:00,45.6,42.3,29.43,NW,315,2.0,2.0,88,0.00,,,0.38,Wunderground v.1.15,2013-10-31 22:54:00,
2013-10-31 17:59:00,45.3,42.0,29.43,NNW,332,3.0,5.0,88,0.00,,,0.38,Wunderground v.1.15,2013-10-31 22:59:00,
2013-10-31 18:05:00,45.2,41.9,29.44,NNW,333,3.0,5.0,88,0.00,,,0.39,Wunderground v.1.15,2013-10-31 23:05:00,
2013-10-31 18:14:00,45.0,41.7,29.43,NNW,347,4.0,4.0,88,0.00,,,0.39,Wunderground v.1.15,2013-10-31 23:14:00,
2013-10-31 18:19:00,44.9,41.6,29.44,NW,321,3.0,3.0,88,0.00,,,0.39,Wunderground v.1.15,2013-10-31 23:19:00,
2013-10-31 18:24:00,44.7,41.4,29.44,NW,313,2.0,3.0,88,0.00,,,0.39,Wunderground v.1.15,2013-10-31 23:24:00,
2013-10-31 18:34:00,44.5,41.2,29.44,NW,315,1.0,3.0,88,0.00,,,0.39,Wunderground v.1.15,2013-10-31 23:34:00,
2013-10-31 18:39:00,44.5,41.2,29.44,NNW,336,2.0,5.0,88,0.00,,,0.40,Wunderground v.1.15,2013-10-31 23:39:00,
2013-10-31 18:44:00,44.5,41.2,29.43,NW,321,2.0,5.0,88,0.00,,,0.40,Wunderground v.1.15,2013-10-31 23:44:00,
2013-10-31 18:49:00,44.4,41.1,29.44,NW,326,1.0,1.0,88,0.00,,,0.40,Wunderground v.1.15,2013-10-31 23:49:00,
2013-10-31 18:54:00,44.2,40.9,29.43,NNW,329,2.0,4.0,88,0.00,,,0.40,Wunderground v.1.15,2013-10-31 23:54:00,
2013-10-31 18:59:00,44.1,40.8,29.43,North,355,2.0,2.0,88,0.00,,,0.40,Wunderground v.1.15,2013-10-31 23:59:00,
2013-10-31 19:04:00,44.1,40.8,29.44,NW,318,2.0,2.0,88,0.00,,,0.40,Wunderground v.1.15,2013-11-01 00:04:00,
2013-10-31 19:14:00,43.8,40.5,29.45,NW,304,2.0,4.0,88,0.00,,,0.40,Wunderground v.1.15,2013-11-01 00:14:00,
2013-10-31 19:24:00,43.4,40.1,29.45,NW,311,3.0,3.0,88,0.00,,,0.40,Wunderground v.1.15,2013-11-01 00:24:00,
2013-10-31 19:29:00,43.2,39.9,29.45,WNW,283,1.0,3.0,88,0.00,,,0.40,Wunderground v.1.15,2013-11-01 00:29:00,
2013-10-31 19:34:00,43.1,39.8,29.44,NW,319,1.0,3.0,88,0.00,,,0.40,Wunderground v.1.15,2013-11-01 00:34:00,
2013-10-31 19:39:00,43.0,39.7,29.45,NW,322,2.0,2.0,88,0.00,,,0.40,Wunderground v.1.15,2013-11-01 00:39:00,
2013-10-31 19:44:00,43.0,39.7,29.45,West,269,1.0,2.0,88,0.00,,,0.40,Wunderground v.1.15,2013-11-01 00:44:00,
2013-10-31 19:49:00,43.0,39.7,29.46,NW,309,1.0,3.0,88,0.00,,,0.40,Wunderground v.1.15,2013-11-01 00:49:00,
2013-10-31 19:54:00,42.9,39.6,29.46,NW,311,2.0,3.0,88,0.00,,,0.40,Wunderground v.1.15,2013-11-01 00:54:00,
2013-10-31 20:04:00,42.7,39.4,29.46,NNW,340,3.0,3.0,88,0.00,,,0.40,Wunderground v.1.15,2013-11-01 01:04:00,
2013-10-31 20:14:00,42.4,39.1,29.46,NNW,339,2.0,6.0,88,0.00,,,0.40,Wunderground v.1.15,2013-11-01 01:14:00,
2013-10-31 20:19:00,42.2,38.9,29.46,NNW,330,2.0,3.0,88,0.00,,,0.40,Wunderground v.1.15,2013-11-01 01:19:00,
2013-10-31 20:24:00,42.0,38.7,29.46,NW,326,2.0,3.0,88,0.00,,,0.40,Wunderground v.1.15,2013-11-01 01:24:00,
2013-10-31 20:29:00,41.9,38.6,29.45,NNW,338,1.0,1.0,88,0.00,,,0.40,Wunderground v.1.15,2013-11-01 01:29:00,
2013-10-31 20:34:00,41.8,38.5,29.45,NNW,346,1.0,1.0,88,0.00,,,0.40,Wunderground v.1.15,2013-11-01 01:34:00,
2013-10-31 20:44:00,41.7,38.4,29.45,West,280,1.0,6.0,88,0.00,,,0.40,Wunderground v.1.15,2013-11-01 01:44:00,
2013-10-31 20:54:00,41.6,38.3,29.44,WNW,299,1.0,1.0,88,0.00,,,0.40,Wunderground v.1.15,2013-11-01 01:54:00,
2013-10-31 20:59:00,41.6,38.3,29.44,North,360,1.0,6.0,88,0.00,,,0.40,Wunderground v.1.15,2013-11-01 01:59:00,
2013-10-31 21:04:00,41.6,38.3,29.44,NW,307,2.0,6.0,88,0.00,,,0.40,Wunderground v.1.15,2013-11-01 02:04:00,
2013-10-31 21:14:00,41.5,38.2,29.45,West,273,1.0,4.0,88,0.00,,,0.40,Wunderground v.1.15,2013-11-01 02:14:00,
2013-10-31 21:19:00,41.4,38.1,29.45,WNW,288,1.0,1.0,88,0.00,,,0.40,Wunderground v.1.15,2013-11-01 02:19:00,
2013-10-31 21:24:00,41.4,38.1,29.45,West,280,1.0,1.0,88,0.00,,,0.40,Wunderground v.1.15,2013-11-01 02:24:00,
2013-10-31 21:29:00,41.4,38.1,29.46,West,271,2.0,2.0,88,0.00,,,0.40,Wunderground v.1.15,2013-11-01 02:29:00,
2013-10-31 21:39:00,41.1,38.1,29.46,NW,325,5.0,6.0,89,0.00,,,0.40,Wunderground v.1.15,2013-11-01 02:39:00,
2013-10-31 21:44:00,41.2,38.2,29.46,WNW,287,5.0,6.0,89,0.00,,,0.40,Wunderground v.1.15,2013-11-01 02:44:00,
2013-10-31 21:49:00,41.2,38.2,29.47,WNW,283,4.0,5.0,89,0.00,,,0.40,Wunderground v.1.15,2013-11-01 02:49:00,
2013-10-31 21:59:00,41.2,38.2,29.47,NW,321,3.0,3.0,89,0.00,,,0.40,Wunderground v.1.15,2013-11-01 02:59:00,
2013-10-31 22:05:00,41.2,38.2,29.47,NNW,346,3.0,3.0,89,0.00,,,0.40,Wunderground v.1.15,2013-11-01 03:05:00,
2013-10-31 22:14:00,41.1,38.1,29.48,NW,319,2.0,5.0,89,0.00,,,0.40,Wunderground v.1.15,2013-11-01 03:14:00,
2013-10-31 22:19:00,41.1,38.1,29.48,WNW,300,3.0,3.0,89,0.00,,,0.40,Wunderground v.1.15,2013-11-01 03:19:00,
2013-10-31 22:24:00,40.9,37.9,29.49,WNW,291,3.0,5.0,89,0.00,,,0.40,Wunderground v.1.15,2013-11-01 03:24:00,
2013-10-31 22:34:00,40.5,37.5,29.49,NW,306,3.0,4.0,89,0.00,,,0.40,Wunderground v.1.15,2013-11-01 03:34:00,
2013-10-31 22:44:00,40.2,37.2,29.49,West,269,2.0,11.0,89,0.00,,,0.40,Wunderground v.1.15,2013-11-01 03:44:00,
2013-10-31 22:54:00,40.1,37.1,29.50,West,265,3.0,4.0,89,0.00,,,0.40,Wunderground v.1.15,2013-11-01 03:54:00,
2013-10-31 22:59:00,40.0,37.0,29.51,WNW,296,3.0,3.0,89,0.00,,,0.40,Wunderground v.1.15,2013-11-01 03:59:00,
2013-10-31 23:05:00,39.9,36.9,29.51,WNW,290,3.0,3.0,89,0.00,,,0.40,Wunderground v.1.15,2013-11-01 04:05:00,
2013-10-31 23:09:00,39.7,36.7,29.51,NW,313,4.0,6.0,89,0.00,,,0.40,Wunderground v.1.15,2013-11-01 04:09:00,
2013-10-31 23:14:00,39.7,36.7,29.50,NW,322,4.0,6.0,89,0.00,,,0.40,Wunderground v.1.15,2013-11-01 04:14:00,
2013-10-31 23:19:00,39.6,36.6,29.51,North,355,2.0,6.0,89,0.00,,,0.40,Wunderground v.1.15,2013-11-01 04:19:00,
2013-10-31 23:24:00,39.5,36.5,29.51,WNW,294,1.0,6.0,89,0.00,,,0.40,Wunderground v.1.15,2013-11-01 04:24:00,
2013-10-31 23:34:00,39.5,36.5,29.51,NNW,331,3.0,3.0,89,0.00,,,0.40,Wunderground v.1.15,2013-11-01 04:34:00,
2013-10-31 23:39:00,39.5,36.5,29.51,West,269,2.0,2.0,89,0.00,,,0.40,Wunderground v.1.15,2013-11-01 04:39:00,
2013-10-31 23:44:00,39.5,36.5,29.51,West,280,1.0,2.0,89,0.00,,,0.40,Wunderground v.1.15,2013-11-01 04:44:00,
2013-10-31 23:49:00,39.5,36.5,29.51,WNW,286,1.0,1.0,89,0.00,,,0.40,Wunderground v.1.15,2013-11-01 04:49:00,
2013-10-31 23:54:00,39.5,36.5,29.51,WNW,300,2.0,3.0,89,0.00,,,0.40,Wunderground v.1.15,2013-11-01 04:54:00,